TimePST,TemperatureF,Dew PointF,Humidity,Sea Level PressureIn,VisibilityMPH,Wind Direction,Wind SpeedMPH,Gust SpeedMPH,PrecipitationIn,Events,Conditions,WindDirDegrees,DateUTC
12:56 AM,54.0,48.9,83,30.02,10.0,Calm,Calm,-,N/A,,Clear,0,2012-12-07 08:56:00
1:56 AM,55.9,48.0,75,30.02,10.0,Variable,3.5,-,N/A,,Clear,0,2012-12-07 09:56:00
2:56 AM,55.0,46.9,74,30.01,10.0,SW,8.1,-,N/A,,Clear,220,2012-12-07 10:56:00
3:56 AM,55.9,46.9,72,30.00,10.0,NW,8.1,-,N/A,,Clear,310,2012-12-07 11:56:00
4:56 AM,57.0,46.0,67,30.01,10.0,ENE,11.5,-,N/A,,Clear,60,2012-12-07 12:56:00
5:56 AM,57.0,46.0,67,30.03,10.0,ESE,4.6,-,N/A,,Clear,110,2012-12-07 13:56:00
6:18 AM,57.2,46.4,67,30.03,10.0,Variable,3.5,-,N/A,,Partly Cloudy,0,2012-12-07 14:18:00
6:56 AM,57.9,46.0,65,30.04,10.0,Variable,4.6,-,N/A,,Scattered Clouds,0,2012-12-07 14:56:00
7:56 AM,57.0,46.9,69,30.05,10.0,Variable,3.5,-,N/A,,Scattered Clouds,0,2012-12-07 15:56:00
8:56 AM,61.0,46.9,60,30.05,10.0,NNW,6.9,-,N/A,,Scattered Clouds,340,2012-12-07 16:56:00
9:56 AM,63.0,46.9,56,30.05,10.0,NNW,13.8,-,N/A,,Clear,330,2012-12-07 17:56:00
10:56 AM,64.9,46.0,50,30.05,10.0,NW,10.4,-,N/A,,Clear,320,2012-12-07 18:56:00
11:56 AM,68.0,45.0,43,30.03,10.0,NW,11.5,-,N/A,,Clear,310,2012-12-07 19:56:00
12:56 PM,70.0,44.1,39,30.00,10.0,Variable,4.6,-,N/A,,Clear,0,2012-12-07 20:56:00
1:56 PM,69.1,44.1,40,29.99,10.0,NNW,9.2,18.4,N/A,,Clear,330,2012-12-07 21:56:00
2:56 PM,69.1,44.1,40,29.99,10.0,NNW,10.4,-,N/A,,Clear,330,2012-12-07 22:56:00
3:56 PM,66.0,45.0,47,30.00,10.0,NW,8.1,-,N/A,,Clear,320,2012-12-07 23:56:00
4:56 PM,62.1,44.1,52,30.01,10.0,NW,6.9,-,N/A,,Clear,310,2012-12-08 00:56:00
5:56 PM,62.1,43.0,50,30.02,10.0,WNW,4.6,-,N/A,,Clear,300,2012-12-08 01:56:00
6:56 PM,61.0,43.0,52,30.03,10.0,North,3.5,-,N/A,,Clear,360,2012-12-08 02:56:00
7:56 PM,57.9,43.0,58,30.03,10.0,Calm,Calm,-,N/A,,Clear,0,2012-12-08 03:56:00
8:56 PM,59.0,41.0,51,30.02,10.0,Calm,Calm,-,N/A,,Clear,0,2012-12-08 04:56:00
9:56 PM,55.9,41.0,57,30.02,10.0,Calm,Calm,-,N/A,,Clear,0,2012-12-08 05:56:00
10:56 PM,53.1,39.0,59,30.03,10.0,SSE,3.5,-,N/A,,Clear,150,2012-12-08 06:56:00
11:56 PM,50.0,39.0,66,30.02,10.0,ESE,3.5,-,N/A,,Clear,120,2012-12-08 07:56:00